Cosmos 1674 - Orbit

View from above orbital plane
View from above orbital plane
View from above satellite
View from above satellite

Ground track
Ground track

The orbit data is extracted from the following two-line orbital elements,

1 15944U 85069A   13140.44534861  .00004041  00000-0  25416-3 0  5980
2 15944 082.5036 254.6260 0022594 236.5141 123.3929 15.08754181512612
Epoch (UTC): 20 May 2013 10:41:18
Eccentricity: 0.0022594
inclination: 82.5036°
perigee height: 524 km
apogee height: 555 km
right ascension of ascending node: 254.6260°
argument of perigee: 236.5141°
revolutions per day: 15.08754181
mean anomaly at epoch: 123.3929°
orbit number at epoch: 51261

The dashed part of the orbit path shows where the satellite is in the earth's shadow,  

Developed and maintained by Chris Peat, Heavens-Above GmbH. Please read the updated FAQ before sending e-mail. Imprint. DLR